Location: Val-d'Or
(48.1170°N, 77.7670°W)
Time: 07:01:04
(UTC-04:00)

ISS - Visible Passes

Search period start: 25 September 2018 00:00
Search period end: 05 October 2018 00:00
Orbit: 403 x 408 km, 51.6° (Epoch: 25 September)

Date Brightness Start Highest point End Pass type
(mag) Time Alt. Az. Time Alt. Az. Time Alt. Az.
25 Sep -3.0 19:37:58 10° SSW 19:41:00 34° SE 19:44:02 10° ENE visible
25 Sep -3.0 21:14:08 10° W 21:16:50 50° WNW 21:16:50 50° WNW visible
26 Sep -3.8 20:22:11 10° WSW 20:25:30 83° NNW 20:27:07 28° ENE visible
26 Sep -0.7 21:59:04 10° WNW 21:59:48 15° WNW 21:59:48 15° WNW visible
27 Sep -3.8 19:30:21 10° SW 19:33:37 67° SSE 19:36:55 10° ENE visible
27 Sep -2.9 21:07:03 10° W 21:10:00 45° NNW 21:10:00 45° NNW visible
28 Sep -3.3 20:15:01 10° W 20:18:16 55° NNW 20:20:08 23° ENE visible
28 Sep -0.8 21:51:55 10° WNW 21:52:48 17° WNW 21:52:48 17° WNW visible
29 Sep -3.6 19:23:01 10° WSW 19:26:18 73° NNW 19:29:37 10° ENE visible
29 Sep -2.8 20:59:55 10° WNW 21:02:52 42° NNW 21:02:52 42° NNW visible
30 Sep -3.0 20:07:52 10° W 20:11:04 44° N 20:12:54 21° ENE visible
30 Sep -0.9 21:44:37 10° WNW 21:45:34 17° WNW 21:45:34 17° WNW visible
01 Oct -3.0 20:52:40 10° WNW 20:55:35 45° N 20:55:35 45° N visible
02 Oct -3.0 20:00:39 10° WNW 20:03:50 43° N 20:05:35 22° ENE visible
02 Oct -0.9 21:37:15 10° WNW 21:38:15 18° WNW 21:38:15 18° WNW visible
03 Oct -3.4 20:45:17 10° WNW 20:48:15 59° NNW 20:48:15 59° NNW visible
04 Oct -3.3 19:53:18 10° WNW 19:56:32 50° N 19:58:15 24° ENE visible
04 Oct -1.0 21:29:51 10° WNW 21:30:55 19° WNW 21:30:55 19° WNW visible
